Home   Weather   Pasadena   Past weeks

Flag for USA Past Weather in Pasadena, California, USA — Yesterday and Last 2 Weeks

Now
48 °F

Sunny.


Feels Like: 48 °F
Forecast: 39 / 58 °F
Wind: No wind

Location: Bob Hope Airport

Current Time: Feb 25, 2017 at 10:14:59 am

Latest Report: Feb 25, 2017 at 8:53 am


Visibility: 10 mi

Pressure: 30.11 "Hg

Humidity: 54%

Dew Point: 32 °F

Location of PasadenaLocation

Past Weather in Pasadena — Graph

°F

Pasadena Temperature Yesterday

Maximum temperature yesterday: 62 °F (at 1:53 pm)
Minimum temperature yesterday: 38 °F (at 6:53 am)
Average temperature yesterday: 50 °F

High & Low Weather Summary for the Past Weeks

 TemperatureHumidityPressure
High78 °F (Feb 15, 12:53 pm)97% (Feb 10, 7:53 pm)30.36 "Hg (Feb 10, 7:53 pm)
Low38 °F (Feb 24, 6:53 am)14% (Feb 15, 2:53 pm)29.50 "Hg (Feb 17, 1:57 pm)
Average56 °F66%30.01 "Hg
* Reported Feb 10 8:53 am — Feb 25 8:53 am, Pasadena, Weather by CustomWeather, © 2017

Note: Actual official high and low records may vary slightly from our data, if they occured in-between our weather recording intervals... More about our weather records

Advertising

Pasadena Weather History for the Previous 24 Hours

Scroll right to see more
 ConditionsComfort  
Time TempWeatherWind HumidityBarometerVisibility
8:53 am
Sat, Feb 25
48 °FSunny.No wind54%30.11 "Hg10 mi
7:53 am44 °FSunny.No wind60%30.12 "Hg10 mi
6:53 am39 °FSunny.3 mph70%30.09 "Hg10 mi
5:53 am38 °FClear.No wind76%30.09 "Hg10 mi
4:53 am39 °FClear.No wind73%30.09 "Hg10 mi
3:53 am40 °FClear.5 mph70%30.09 "Hg10 mi
2:53 am41 °FClear.No wind67%30.09 "Hg10 mi
1:53 am41 °FClear.No wind70%30.12 "Hg10 mi
12:53 am44 °FClear.No wind60%30.14 "Hg10 mi
11:53 pm
Fri, Feb 24
44 °FClear.No wind60%30.15 "Hg10 mi
10:53 pm46 °FClear.No wind56%30.14 "Hg10 mi
9:53 pm47 °FClear.No wind54%30.14 "Hg10 mi
8:53 pm51 °FClear.3 mph48%30.14 "Hg10 mi
7:53 pm52 °FClear.6 mph43%30.13 "Hg10 mi
6:53 pm53 °FClear.7 mph35%30.11 "Hg10 mi
5:53 pm54 °FClear.8 mph33%30.11 "Hg10 mi
4:53 pm57 °FSunny.9 mph29%30.09 "Hg10 mi
3:53 pm59 °FSunny.9 mph31%30.08 "Hg10 mi
2:53 pm61 °FSunny.10 mph27%30.08 "Hg10 mi
1:53 pm62 °FSunny.5 mph19%30.09 "Hg10 mi
12:53 pm60 °FSunny.6 mph22%30.11 "Hg10 mi
11:53 am56 °FSunny.No wind29%30.14 "Hg10 mi
10:53 am54 °FSunny.No wind34%30.15 "Hg10 mi
Weather by CustomWeather, © 2017

See weather overviewHow to use our weather pages